Year,Month,Day,Hour,Minute,Value (Times are PST for temperature in C)
2006,07,19,00,00,14.30
2006,07,19,00,01,14.30
2006,07,19,00,02,14.30
2006,07,19,00,03,14.30
2006,07,19,00,04,14.30
2006,07,19,00,05,14.20
2006,07,19,00,06,14.20
2006,07,19,00,07,14.20
2006,07,19,00,08,14.10
2006,07,19,00,09,14.10
2006,07,19,00,10,14.10
2006,07,19,00,11,14.00
2006,07,19,00,12,14.00
2006,07,19,00,13,13.90
2006,07,19,00,14,13.90
2006,07,19,00,15,13.90
2006,07,19,00,16,13.80
2006,07,19,00,17,13.80
2006,07,19,00,18,13.80
2006,07,19,00,19,13.70
2006,07,19,00,20,13.70
2006,07,19,00,21,13.70
2006,07,19,00,22,13.60
2006,07,19,00,23,13.60
2006,07,19,00,24,13.60
2006,07,19,00,25,13.60
2006,07,19,00,26,13.50
2006,07,19,00,27,13.50
2006,07,19,00,28,13.40
2006,07,19,00,29,13.40
2006,07,19,00,30,13.40
2006,07,19,00,31,13.30
2006,07,19,00,32,13.30
2006,07,19,00,33,13.30
2006,07,19,00,34,13.20
2006,07,19,00,35,13.20
2006,07,19,00,36,13.20
2006,07,19,00,37,13.20
2006,07,19,00,38,13.20
2006,07,19,00,39,13.10
2006,07,19,00,40,13.10
2006,07,19,00,41,13.10
2006,07,19,00,42,13.10
2006,07,19,00,43,13.10
2006,07,19,00,44,13.00
2006,07,19,00,45,13.00
2006,07,19,00,46,13.00
2006,07,19,00,47,13.00
2006,07,19,00,48,12.90
2006,07,19,00,49,12.90
2006,07,19,00,50,12.90
2006,07,19,00,51,12.90
2006,07,19,00,52,12.90
2006,07,19,00,53,12.90
2006,07,19,00,54,12.90
2006,07,19,00,55,12.90
2006,07,19,00,56,12.80
2006,07,19,00,57,12.80
2006,07,19,00,58,12.80
2006,07,19,00,59,12.80
2006,07,19,01,00,12.80
2006,07,19,01,01,12.80
2006,07,19,01,02,12.80
2006,07,19,01,03,12.80
2006,07,19,01,04,12.80
2006,07,19,01,05,12.70
2006,07,19,01,06,12.70
2006,07,19,01,07,12.70
2006,07,19,01,08,12.70
2006,07,19,01,09,12.70
2006,07,19,01,10,12.70
2006,07,19,01,11,12.70
2006,07,19,01,12,12.70
2006,07,19,01,13,12.70
2006,07,19,01,14,12.70
2006,07,19,01,15,12.70
2006,07,19,01,16,12.70
2006,07,19,01,17,12.70
2006,07,19,01,18,12.70
2006,07,19,01,19,12.60
2006,07,19,01,20,12.60
2006,07,19,01,21,12.60
2006,07,19,01,22,12.60
2006,07,19,01,23,12.50
2006,07,19,01,24,12.50
2006,07,19,01,25,12.40
2006,07,19,01,26,12.40
2006,07,19,01,27,12.40
2006,07,19,01,28,12.40
2006,07,19,01,29,12.30
2006,07,19,01,30,12.30
2006,07,19,01,31,12.30
2006,07,19,01,32,12.20
2006,07,19,01,33,12.20
2006,07,19,01,34,12.20
2006,07,19,01,35,12.20
2006,07,19,01,36,12.20
2006,07,19,01,37,12.20
2006,07,19,01,38,12.20
2006,07,19,01,39,12.10
2006,07,19,01,40,12.10
2006,07,19,01,41,12.10
2006,07,19,01,42,12.10
2006,07,19,01,43,12.10
2006,07,19,01,44,12.10
2006,07,19,01,45,12.00
2006,07,19,01,46,12.00
2006,07,19,01,47,12.00
2006,07,19,01,48,12.00
2006,07,19,01,49,12.10
2006,07,19,01,50,12.10
2006,07,19,01,51,12.10
2006,07,19,01,52,12.10
2006,07,19,01,53,12.10
2006,07,19,01,54,12.20
2006,07,19,01,55,12.20
2006,07,19,01,56,12.20
2006,07,19,01,57,12.20
2006,07,19,01,58,12.30
2006,07,19,01,59,12.30
2006,07,19,02,00,12.30
2006,07,19,02,01,12.30
2006,07,19,02,02,12.30
2006,07,19,02,03,12.30
2006,07,19,02,04,12.30
2006,07,19,02,05,12.30
2006,07,19,02,06,12.30
2006,07,19,02,07,12.30
2006,07,19,02,08,12.30
2006,07,19,02,09,12.30
2006,07,19,02,10,12.30
2006,07,19,02,11,12.30
2006,07,19,02,12,12.20
2006,07,19,02,13,12.20
2006,07,19,02,14,12.20
2006,07,19,02,15,12.10
2006,07,19,02,16,12.10
2006,07,19,02,17,12.00
2006,07,19,02,18,12.00
2006,07,19,02,19,11.90
2006,07,19,02,20,11.90
2006,07,19,02,21,11.80
2006,07,19,02,22,11.80
2006,07,19,02,23,11.80
2006,07,19,02,24,11.80
2006,07,19,02,25,11.70
2006,07,19,02,26,11.70
2006,07,19,02,27,11.70
2006,07,19,02,28,11.70
2006,07,19,02,29,11.60
2006,07,19,02,30,11.60
2006,07,19,02,31,11.50
2006,07,19,02,32,11.50
2006,07,19,02,33,11.40
2006,07,19,02,34,11.40
2006,07,19,02,35,11.40
2006,07,19,02,36,11.30
2006,07,19,02,37,11.30
2006,07,19,02,38,11.30
2006,07,19,02,39,11.30
2006,07,19,02,40,11.30
2006,07,19,02,41,11.30
2006,07,19,02,42,11.20
2006,07,19,02,43,11.20
2006,07,19,02,44,11.20
2006,07,19,02,45,11.20
2006,07,19,02,46,11.20
2006,07,19,02,47,11.20
2006,07,19,02,48,11.20
2006,07,19,02,49,11.20
2006,07,19,02,50,11.20
2006,07,19,02,51,11.20
2006,07,19,02,52,11.20
2006,07,19,02,53,11.10
2006,07,19,02,54,11.10
2006,07,19,02,55,11.10
2006,07,19,02,56,11.10
2006,07,19,02,57,11.10
2006,07,19,02,58,11.10
2006,07,19,02,59,11.10
2006,07,19,03,00,11.10
2006,07,19,03,01,11.10
2006,07,19,03,02,11.10
2006,07,19,03,03,11.00
2006,07,19,03,04,11.00
2006,07,19,03,05,11.00
2006,07,19,03,06,11.00
2006,07,19,03,07,11.00
2006,07,19,03,08,11.00
2006,07,19,03,09,11.00
2006,07,19,03,10,11.00
2006,07,19,03,11,10.90
2006,07,19,03,12,10.90
2006,07,19,03,13,10.90
2006,07,19,03,14,10.90
2006,07,19,03,15,10.90
2006,07,19,03,16,10.90
2006,07,19,03,17,10.90
2006,07,19,03,18,10.90
2006,07,19,03,19,10.90
2006,07,19,03,20,10.90
2006,07,19,03,21,10.90
2006,07,19,03,22,10.90
2006,07,19,03,23,10.80
2006,07,19,03,24,10.80
2006,07,19,03,25,10.80
2006,07,19,03,26,10.80
2006,07,19,03,27,10.80
2006,07,19,03,28,10.80
2006,07,19,03,29,10.80
2006,07,19,03,30,10.80
2006,07,19,03,31,10.80
2006,07,19,03,32,10.80
2006,07,19,03,33,10.80
2006,07,19,03,34,10.80
2006,07,19,03,35,10.80
2006,07,19,03,36,10.80
2006,07,19,03,37,10.80
2006,07,19,03,38,10.80
2006,07,19,03,39,10.80
2006,07,19,03,40,10.80
2006,07,19,03,41,10.80
2006,07,19,03,42,10.80
2006,07,19,03,43,10.80
2006,07,19,03,44,10.80
2006,07,19,03,45,10.80
2006,07,19,03,46,10.70
2006,07,19,03,47,10.70
2006,07,19,03,48,10.70
2006,07,19,03,49,10.70
2006,07,19,03,50,10.70
2006,07,19,03,51,10.70
2006,07,19,03,52,10.70
2006,07,19,03,53,10.70
2006,07,19,03,54,10.70
2006,07,19,03,55,10.60
2006,07,19,03,56,10.60
2006,07,19,03,57,10.50
2006,07,19,03,58,10.50
2006,07,19,03,59,10.40
2006,07,19,04,00,10.40
2006,07,19,04,01,10.40
2006,07,19,04,02,10.30
2006,07,19,04,03,10.30
2006,07,19,04,04,10.30
2006,07,19,04,05,10.20
2006,07,19,04,06,10.20
2006,07,19,04,07,10.20
2006,07,19,04,08,10.20
2006,07,19,04,09,10.20
2006,07,19,04,10,10.20
2006,07,19,04,11,10.20
2006,07,19,04,12,10.10
2006,07,19,04,13,10.10
2006,07,19,04,14,10.10
2006,07,19,04,15,10.10
2006,07,19,04,16,10.10
2006,07,19,04,17,10.10
2006,07,19,04,18,10.10
2006,07,19,04,19,10.00
2006,07,19,04,20,10.00
2006,07,19,04,21,10.00
2006,07,19,04,22,10.00
2006,07,19,04,23,10.00
2006,07,19,04,24,10.00
2006,07,19,04,25,10.00
2006,07,19,04,26,10.00
2006,07,19,04,27,10.00
2006,07,19,04,28,10.00
2006,07,19,04,29,10.00
2006,07,19,04,30,10.00
2006,07,19,04,31,10.10
2006,07,19,04,32,10.10
2006,07,19,04,33,10.10
2006,07,19,04,34,10.10
2006,07,19,04,35,10.10
2006,07,19,04,36,10.10
2006,07,19,04,37,10.10
2006,07,19,04,38,10.00
2006,07,19,04,39,10.00
2006,07,19,04,40,10.00
2006,07,19,04,41,10.00
2006,07,19,04,42,10.00
2006,07,19,04,43,10.00
2006,07,19,04,44,10.00
2006,07,19,04,45,9.90
2006,07,19,04,46,9.90
2006,07,19,04,47,9.90
2006,07,19,04,48,9.90
2006,07,19,04,49,9.90
2006,07,19,04,50,9.80
2006,07,19,04,51,9.80
2006,07,19,04,52,9.80
2006,07,19,04,53,9.80
2006,07,19,04,54,9.80
2006,07,19,04,55,9.80
2006,07,19,04,56,9.80
2006,07,19,04,57,9.80
2006,07,19,04,58,9.80
2006,07,19,04,59,9.80
2006,07,19,05,00,9.80
2006,07,19,05,01,9.90
2006,07,19,05,02,9.90
2006,07,19,05,03,9.90
2006,07,19,05,04,9.90
2006,07,19,05,05,9.90
2006,07,19,05,06,9.90
2006,07,19,05,07,9.90
2006,07,19,05,08,9.90
2006,07,19,05,09,9.90
2006,07,19,05,10,9.90
2006,07,19,05,11,9.90
2006,07,19,05,12,10.00
2006,07,19,05,13,9.90
2006,07,19,05,14,9.90
2006,07,19,05,15,9.90
2006,07,19,05,16,9.90
2006,07,19,05,17,9.90
2006,07,19,05,18,9.90
2006,07,19,05,19,9.90
2006,07,19,05,20,9.90
2006,07,19,05,21,9.90
2006,07,19,05,22,9.90
2006,07,19,05,23,9.80
2006,07,19,05,24,9.80
2006,07,19,05,25,9.80
2006,07,19,05,26,9.70
2006,07,19,05,27,9.70
2006,07,19,05,28,9.70
2006,07,19,05,29,9.60
2006,07,19,05,30,9.60
2006,07,19,05,31,9.60
2006,07,19,05,32,9.50
2006,07,19,05,33,9.50
2006,07,19,05,34,9.40
2006,07,19,05,35,9.40
2006,07,19,05,36,9.40
2006,07,19,05,37,9.40
2006,07,19,05,38,9.40
2006,07,19,05,39,9.40
2006,07,19,05,40,9.40
2006,07,19,05,41,9.40
2006,07,19,05,42,9.40
2006,07,19,05,43,9.40
2006,07,19,05,44,9.40
2006,07,19,05,45,9.40
2006,07,19,05,46,9.40
2006,07,19,05,47,9.40
2006,07,19,05,48,9.40
2006,07,19,05,49,9.40
2006,07,19,05,50,9.40
2006,07,19,05,51,9.50
2006,07,19,05,52,9.50
2006,07,19,05,53,9.50
2006,07,19,05,54,9.50
2006,07,19,05,55,9.50
2006,07,19,05,56,9.60
2006,07,19,05,57,9.60
2006,07,19,05,58,9.60
2006,07,19,05,59,9.60
2006,07,19,06,00,9.60
2006,07,19,06,01,9.60
2006,07,19,06,02,9.60
2006,07,19,06,03,9.60
2006,07,19,06,04,9.60
2006,07,19,06,05,9.60
2006,07,19,06,06,9.60
2006,07,19,06,07,9.70
2006,07,19,06,08,9.70
2006,07,19,06,09,9.70
2006,07,19,06,10,9.70
2006,07,19,06,11,9.70
2006,07,19,06,12,9.80
2006,07,19,06,13,9.80
2006,07,19,06,14,9.80
2006,07,19,06,15,9.80
2006,07,19,06,16,9.80
2006,07,19,06,17,9.80
2006,07,19,06,18,9.80
2006,07,19,06,19,9.80
2006,07,19,06,20,9.80
2006,07,19,06,21,9.80
2006,07,19,06,22,9.80
2006,07,19,06,23,9.80
2006,07,19,06,24,9.80
2006,07,19,06,25,9.90
2006,07,19,06,26,9.90
2006,07,19,06,27,9.90
2006,07,19,06,28,9.90
2006,07,19,06,29,9.90
2006,07,19,06,30,9.90
2006,07,19,06,31,9.90
2006,07,19,06,32,10.00
2006,07,19,06,33,10.00
2006,07,19,06,34,10.10
2006,07,19,06,35,10.10
2006,07,19,06,36,10.20
2006,07,19,06,37,10.20
2006,07,19,06,38,10.20
2006,07,19,06,39,10.30
2006,07,19,06,40,10.30
2006,07,19,06,41,10.40
2006,07,19,06,42,10.40
2006,07,19,06,43,10.50
2006,07,19,06,44,10.60
2006,07,19,06,45,10.70
2006,07,19,06,46,10.70
2006,07,19,06,47,10.80
2006,07,19,06,48,10.90
2006,07,19,06,49,10.90
2006,07,19,06,50,11.00
2006,07,19,06,51,11.00
2006,07,19,06,52,11.10
2006,07,19,06,53,11.10
2006,07,19,06,54,11.20
2006,07,19,06,55,11.20
2006,07,19,06,56,11.30
2006,07,19,06,57,11.30
2006,07,19,06,58,11.30
2006,07,19,06,59,11.30
2006,07,19,07,00,11.40
2006,07,19,07,01,11.40
2006,07,19,07,02,11.50
2006,07,19,07,03,11.50
2006,07,19,07,04,11.60
2006,07,19,07,05,11.60
2006,07,19,07,06,11.60
2006,07,19,07,07,11.60
2006,07,19,07,08,11.70
2006,07,19,07,09,11.70
2006,07,19,07,10,11.70
2006,07,19,07,11,11.80
2006,07,19,07,12,11.80
2006,07,19,07,13,11.80
2006,07,19,07,14,11.90
2006,07,19,07,15,11.90
2006,07,19,07,16,12.00
2006,07,19,07,17,12.00
2006,07,19,07,18,12.10
2006,07,19,07,19,12.10
2006,07,19,07,20,12.10
2006,07,19,07,21,12.20
2006,07,19,07,22,12.20
2006,07,19,07,23,12.20
2006,07,19,07,24,12.30
2006,07,19,07,25,12.30
2006,07,19,07,26,12.30
2006,07,19,07,27,12.40
2006,07,19,07,28,12.40
2006,07,19,07,29,12.40
2006,07,19,07,30,12.50
2006,07,19,07,31,12.60
2006,07,19,07,32,12.60
2006,07,19,07,33,12.60
2006,07,19,07,34,12.70
2006,07,19,07,35,12.80
2006,07,19,07,36,12.80
2006,07,19,07,37,12.90
2006,07,19,07,38,12.90
2006,07,19,07,39,13.00
2006,07,19,07,40,13.00
2006,07,19,07,41,13.10
2006,07,19,07,42,13.10
2006,07,19,07,43,13.20
2006,07,19,07,44,13.20
2006,07,19,07,45,13.20
2006,07,19,07,46,13.20
2006,07,19,07,47,13.20
2006,07,19,07,48,13.20
2006,07,19,07,49,13.20
2006,07,19,07,50,13.20
2006,07,19,07,51,13.30
2006,07,19,07,52,13.30
2006,07,19,07,53,13.30
2006,07,19,07,54,13.40
2006,07,19,07,55,13.40
2006,07,19,07,56,13.50
2006,07,19,07,57,13.60
2006,07,19,07,58,13.70
2006,07,19,07,59,13.80
2006,07,19,08,00,13.80
2006,07,19,08,01,13.90
2006,07,19,08,02,14.00
2006,07,19,08,03,14.00
2006,07,19,08,04,14.10
2006,07,19,08,05,14.20
2006,07,19,08,06,14.30
2006,07,19,08,07,14.30
2006,07,19,08,08,14.40
2006,07,19,08,09,14.50
2006,07,19,08,10,14.60
2006,07,19,08,11,14.70
2006,07,19,08,12,14.80
2006,07,19,08,13,14.80
2006,07,19,08,14,14.90
2006,07,19,08,15,15.00
2006,07,19,08,16,15.00
2006,07,19,08,17,15.00
2006,07,19,08,18,15.00
2006,07,19,08,19,15.00
2006,07,19,08,20,15.10
2006,07,19,08,21,15.20
2006,07,19,08,22,15.20
2006,07,19,08,23,15.30
2006,07,19,08,24,15.40
2006,07,19,08,25,15.40
2006,07,19,08,26,15.40
2006,07,19,08,27,15.50
2006,07,19,08,28,15.50
2006,07,19,08,29,15.60
2006,07,19,08,30,15.60
2006,07,19,08,31,15.60
2006,07,19,08,32,15.60
2006,07,19,08,33,15.50
2006,07,19,08,34,15.50
2006,07,19,08,35,15.50
2006,07,19,08,36,15.40
2006,07,19,08,37,15.40
2006,07,19,08,38,15.40
2006,07,19,08,39,15.50
2006,07,19,08,40,15.50
2006,07,19,08,41,15.60
2006,07,19,08,42,15.60
2006,07,19,08,43,15.70
2006,07,19,08,44,15.80
2006,07,19,08,45,15.80
2006,07,19,08,46,15.90
2006,07,19,08,47,15.90
2006,07,19,08,48,15.90
2006,07,19,08,49,16.00
2006,07,19,08,50,16.00
2006,07,19,08,51,16.00
2006,07,19,08,52,16.00
2006,07,19,08,53,15.90
2006,07,19,08,54,15.90
2006,07,19,08,55,16.00
2006,07,19,08,56,16.00
2006,07,19,08,57,16.00
2006,07,19,08,58,16.00
2006,07,19,08,59,16.00
2006,07,19,09,00,15.90
2006,07,19,09,01,16.00
2006,07,19,09,02,16.00
2006,07,19,09,03,16.00
2006,07,19,09,04,16.00
2006,07,19,09,05,16.00
2006,07,19,09,06,16.10
2006,07,19,09,07,16.10
2006,07,19,09,08,16.10
2006,07,19,09,09,16.20
2006,07,19,09,10,16.20
2006,07,19,09,11,16.20
2006,07,19,09,12,16.20
2006,07,19,09,13,16.20
2006,07,19,09,14,16.20
2006,07,19,09,15,16.20
2006,07,19,09,16,16.20
2006,07,19,09,17,16.20
2006,07,19,09,18,16.20
2006,07,19,09,19,16.20
2006,07,19,09,20,16.20
2006,07,19,09,21,16.30
2006,07,19,09,22,16.30
2006,07,19,09,23,16.30
2006,07,19,09,24,16.30
2006,07,19,09,25,16.40
2006,07,19,09,26,16.30
2006,07,19,09,27,16.30
2006,07,19,09,28,16.30
2006,07,19,09,29,16.40
2006,07,19,09,30,16.40
2006,07,19,09,31,16.40
2006,07,19,09,32,16.50
2006,07,19,09,33,16.50
2006,07,19,09,34,16.60
2006,07,19,09,35,16.60
2006,07,19,09,36,16.60
2006,07,19,09,37,16.60
2006,07,19,09,38,16.60
2006,07,19,09,39,16.60
2006,07,19,09,40,16.60
2006,07,19,09,41,16.50
2006,07,19,09,42,16.40
2006,07,19,09,43,16.40
2006,07,19,09,44,16.40
2006,07,19,09,45,16.50
2006,07,19,09,46,16.50
2006,07,19,09,47,16.50
2006,07,19,09,48,16.60
2006,07,19,09,49,16.60
2006,07,19,09,50,16.60
2006,07,19,09,51,16.70
2006,07,19,09,52,16.70
2006,07,19,09,53,16.80
2006,07,19,09,54,16.80
2006,07,19,09,55,16.90
2006,07,19,09,56,16.90
2006,07,19,09,57,17.00
2006,07,19,09,58,17.10
2006,07,19,09,59,17.10
2006,07,19,10,00,17.20
2006,07,19,10,01,17.20
2006,07,19,10,02,17.20
2006,07,19,10,03,17.20
2006,07,19,10,04,17.30
2006,07,19,10,05,17.30
2006,07,19,10,06,17.40
2006,07,19,10,07,17.50
2006,07,19,10,08,17.60
2006,07,19,10,09,17.60
2006,07,19,10,10,17.60
2006,07,19,10,11,17.60
2006,07,19,10,12,17.60
2006,07,19,10,13,17.60
2006,07,19,10,14,17.60
2006,07,19,10,15,17.60
2006,07,19,10,16,17.60
2006,07,19,10,17,17.60
2006,07,19,10,18,17.60
2006,07,19,10,19,17.60
2006,07,19,10,20,17.60
2006,07,19,10,21,17.60
2006,07,19,10,22,17.60
2006,07,19,10,23,17.60
2006,07,19,10,24,17.60
2006,07,19,10,25,17.60
2006,07,19,10,26,17.60
2006,07,19,10,27,17.60
2006,07,19,10,28,17.70
2006,07,19,10,29,17.70
2006,07,19,10,30,17.70
2006,07,19,10,31,17.70
2006,07,19,10,32,17.70
2006,07,19,10,33,17.70
2006,07,19,10,34,17.70
2006,07,19,10,35,17.70
2006,07,19,10,36,17.80
2006,07,19,10,37,17.80
2006,07,19,10,38,17.80
2006,07,19,10,39,17.90
2006,07,19,10,40,17.90
2006,07,19,10,41,17.80
2006,07,19,10,42,17.80
2006,07,19,10,43,17.80
2006,07,19,10,44,17.80
2006,07,19,10,45,17.70
2006,07,19,10,46,17.60
2006,07,19,10,47,17.50
2006,07,19,10,48,17.40
2006,07,19,10,49,17.30
2006,07,19,10,50,17.20
2006,07,19,10,51,17.10
2006,07,19,10,52,17.10
2006,07,19,10,53,17.00
2006,07,19,10,54,17.00
2006,07,19,10,55,16.80
2006,07,19,10,56,16.80
2006,07,19,10,57,16.70
2006,07,19,10,58,16.70
2006,07,19,10,59,16.80
2006,07,19,11,00,16.80
2006,07,19,11,01,16.80
2006,07,19,11,02,16.80
2006,07,19,11,03,16.90
2006,07,19,11,04,16.90
2006,07,19,11,05,17.00
2006,07,19,11,06,17.00
2006,07,19,11,07,17.10
2006,07,19,11,08,17.10
2006,07,19,11,09,17.10
2006,07,19,11,10,17.20
2006,07,19,11,11,17.30
2006,07,19,11,12,17.40
2006,07,19,11,13,17.60
2006,07,19,11,14,17.70
2006,07,19,11,15,17.80
2006,07,19,11,16,17.90
2006,07,19,11,17,17.90
2006,07,19,11,18,18.00
2006,07,19,11,19,18.20
2006,07,19,11,20,18.30
2006,07,19,11,21,18.40
2006,07,19,11,22,18.50
2006,07,19,11,23,18.50
2006,07,19,11,24,18.60
2006,07,19,11,25,18.70
2006,07,19,11,26,18.80
2006,07,19,11,27,18.90
2006,07,19,11,28,18.80
2006,07,19,11,29,18.70
2006,07,19,11,30,18.70
2006,07,19,11,31,18.80
2006,07,19,11,32,18.70
2006,07,19,11,33,18.70
2006,07,19,11,34,18.70
2006,07,19,11,35,18.70
2006,07,19,11,36,18.60
2006,07,19,11,37,18.60
2006,07,19,11,38,18.60
2006,07,19,11,39,18.60
2006,07,19,11,40,18.60
2006,07,19,11,41,18.70
2006,07,19,11,42,18.70
2006,07,19,11,43,18.70
2006,07,19,11,44,18.60
2006,07,19,11,45,18.60
2006,07,19,11,46,18.60
2006,07,19,11,47,18.60
2006,07,19,11,48,18.50
2006,07,19,11,49,18.50
2006,07,19,11,50,18.50
2006,07,19,11,51,18.50
2006,07,19,11,52,18.50
2006,07,19,11,53,18.40
2006,07,19,11,54,18.30
2006,07,19,11,55,18.30
2006,07,19,11,56,18.20
2006,07,19,11,57,18.30
2006,07,19,11,58,18.30
2006,07,19,11,59,18.30
2006,07,19,12,00,18.30
2006,07,19,12,01,18.30
2006,07,19,12,02,18.40
2006,07,19,12,03,18.40
2006,07,19,12,04,18.40
2006,07,19,12,05,18.50
2006,07,19,12,06,18.60
2006,07,19,12,07,18.60
2006,07,19,12,08,18.70
2006,07,19,12,09,18.70
2006,07,19,12,10,18.70
2006,07,19,12,11,18.80
2006,07,19,12,12,18.80
2006,07,19,12,13,18.80
2006,07,19,12,14,18.80
2006,07,19,12,15,18.80
2006,07,19,12,16,18.80
2006,07,19,12,17,18.80
2006,07,19,12,18,18.70
2006,07,19,12,19,18.60
2006,07,19,12,20,18.50
2006,07,19,12,21,18.50
2006,07,19,12,22,18.40
2006,07,19,12,23,18.40
2006,07,19,12,24,18.50
2006,07,19,12,25,18.50
2006,07,19,12,26,18.60
2006,07,19,12,27,18.60
2006,07,19,12,28,18.60
2006,07,19,12,29,18.60
2006,07,19,12,30,18.50
2006,07,19,12,31,18.40
2006,07,19,12,32,18.40
2006,07,19,12,33,18.40
2006,07,19,12,34,18.40
2006,07,19,12,35,18.50
2006,07,19,12,36,18.50
2006,07,19,12,37,18.50
2006,07,19,12,38,18.50
2006,07,19,12,39,18.50
2006,07,19,12,40,18.50
2006,07,19,12,41,18.50
2006,07,19,12,42,18.60
2006,07,19,12,43,18.60
2006,07,19,12,44,18.50
2006,07,19,12,45,18.40
2006,07,19,12,46,18.30
2006,07,19,12,47,18.30
2006,07,19,12,48,18.30
2006,07,19,12,49,18.30
2006,07,19,12,50,18.30
2006,07,19,12,51,18.30
2006,07,19,12,52,18.30
2006,07,19,12,53,18.20
2006,07,19,12,54,18.20
2006,07,19,12,55,18.30
2006,07,19,12,56,18.30
2006,07,19,12,57,18.30
2006,07,19,12,58,18.40
2006,07,19,12,59,18.40
2006,07,19,13,00,18.40
2006,07,19,13,01,18.40
2006,07,19,13,02,18.40
2006,07,19,13,03,18.40
2006,07,19,13,04,18.40
2006,07,19,13,05,18.40
2006,07,19,13,06,18.40
2006,07,19,13,07,18.40
2006,07,19,13,08,18.40
2006,07,19,13,09,18.40
2006,07,19,13,10,18.40
2006,07,19,13,11,18.40
2006,07,19,13,12,18.40
2006,07,19,13,13,18.40
2006,07,19,13,14,18.40
2006,07,19,13,15,18.40
2006,07,19,13,16,18.40
2006,07,19,13,17,18.40
2006,07,19,13,18,18.40
2006,07,19,13,19,18.30
2006,07,19,13,20,18.20
2006,07,19,13,21,18.20
2006,07,19,13,22,18.20
2006,07,19,13,23,18.10
2006,07,19,13,24,18.10
2006,07,19,13,25,18.10
2006,07,19,13,26,18.10
2006,07,19,13,27,18.20
2006,07,19,13,28,18.20
2006,07,19,13,29,18.10
2006,07,19,13,30,18.10
2006,07,19,13,31,18.10
2006,07,19,13,32,18.00
2006,07,19,13,33,18.10
2006,07,19,13,34,18.10
2006,07,19,13,35,18.10
2006,07,19,13,36,18.10
2006,07,19,13,37,18.10
2006,07,19,13,38,18.10
2006,07,19,13,39,18.00
2006,07,19,13,40,18.10
2006,07,19,13,41,18.10
2006,07,19,13,42,18.20
2006,07,19,13,43,18.20
2006,07,19,13,44,18.30
2006,07,19,13,45,18.30
2006,07,19,13,46,18.30
2006,07,19,13,47,18.30
2006,07,19,13,48,18.40
2006,07,19,13,49,18.50
2006,07,19,13,50,18.60
2006,07,19,13,51,18.70
2006,07,19,13,52,18.80
2006,07,19,13,53,19.00
2006,07,19,13,54,19.10
2006,07,19,13,55,19.20
2006,07,19,13,56,19.40
2006,07,19,13,57,19.50
2006,07,19,13,58,19.50
2006,07,19,13,59,19.60
2006,07,19,14,00,19.60
2006,07,19,14,01,19.60
2006,07,19,14,02,19.60
2006,07,19,14,03,19.60
2006,07,19,14,04,19.60
2006,07,19,14,05,19.60
2006,07,19,14,06,19.70
2006,07,19,14,07,19.70
2006,07,19,14,08,19.80
2006,07,19,14,09,19.90
2006,07,19,14,10,19.90
2006,07,19,14,11,20.00
2006,07,19,14,12,20.00
2006,07,19,14,13,20.10
2006,07,19,14,14,20.10
2006,07,19,14,15,20.10
2006,07,19,14,16,20.10
2006,07,19,14,17,20.10
2006,07,19,14,18,20.00
2006,07,19,14,19,19.90
2006,07,19,14,20,19.90
2006,07,19,14,21,19.90
2006,07,19,14,22,19.90
2006,07,19,14,23,19.90
2006,07,19,14,24,19.80
2006,07,19,14,25,19.80
2006,07,19,14,26,19.80
2006,07,19,14,27,19.80
2006,07,19,14,28,19.80
2006,07,19,14,29,19.80
2006,07,19,14,30,19.80
2006,07,19,14,31,19.80
2006,07,19,14,32,19.80
2006,07,19,14,33,19.70
2006,07,19,14,34,19.80
2006,07,19,14,35,19.70
2006,07,19,14,36,19.70
2006,07,19,14,37,19.70
2006,07,19,14,38,19.70
2006,07,19,14,39,19.70
2006,07,19,14,40,19.70
2006,07,19,14,41,19.70
2006,07,19,14,42,19.80
2006,07,19,14,43,19.80
2006,07,19,14,44,19.90
2006,07,19,14,45,20.00
2006,07,19,14,46,20.00
2006,07,19,14,47,20.00
2006,07,19,14,48,20.10
2006,07,19,14,49,20.20
2006,07,19,14,50,20.20
2006,07,19,14,51,20.20
2006,07,19,14,52,20.10
2006,07,19,14,53,20.00
2006,07,19,14,54,20.00
2006,07,19,14,55,19.80
2006,07,19,14,56,19.70
2006,07,19,14,57,19.60
2006,07,19,14,58,19.60
2006,07,19,14,59,19.50
2006,07,19,15,00,19.50
2006,07,19,15,01,19.60
2006,07,19,15,02,19.60
2006,07,19,15,03,19.60
2006,07,19,15,04,19.60
2006,07,19,15,05,19.60
2006,07,19,15,06,19.50
2006,07,19,15,07,19.50
2006,07,19,15,08,19.50
2006,07,19,15,09,19.50
2006,07,19,15,10,19.60
2006,07,19,15,11,19.60
2006,07,19,15,12,19.70
2006,07,19,15,13,19.70
2006,07,19,15,14,19.70
2006,07,19,15,15,19.70
2006,07,19,15,16,19.70
2006,07,19,15,17,19.70
2006,07,19,15,18,19.70
2006,07,19,15,19,19.70
2006,07,19,15,20,19.80
2006,07,19,15,21,19.90
2006,07,19,15,22,19.90
2006,07,19,15,23,19.80
2006,07,19,15,24,19.80
2006,07,19,15,25,19.90
2006,07,19,15,26,20.10
2006,07,19,15,27,20.20
2006,07,19,15,28,20.30
2006,07,19,15,29,20.40
2006,07,19,15,30,20.50
2006,07,19,15,31,20.70
2006,07,19,15,32,20.80
2006,07,19,15,33,20.90
2006,07,19,15,34,21.00
2006,07,19,15,35,21.20
2006,07,19,15,36,21.30
2006,07,19,15,37,21.30
2006,07,19,15,38,21.40
2006,07,19,15,39,21.50
2006,07,19,15,40,21.60
2006,07,19,15,41,21.70
2006,07,19,15,42,21.80
2006,07,19,15,43,21.90
2006,07,19,15,44,21.90
2006,07,19,15,45,22.00
2006,07,19,15,46,22.10
2006,07,19,15,47,22.10
2006,07,19,15,48,22.20
2006,07,19,15,49,22.20
2006,07,19,15,50,22.30
2006,07,19,15,51,22.30
2006,07,19,15,52,22.30
2006,07,19,15,53,22.30
2006,07,19,15,54,22.30
2006,07,19,15,55,22.30
2006,07,19,15,56,22.20
2006,07,19,15,57,22.30
2006,07,19,15,58,22.30
2006,07,19,15,59,22.40
2006,07,19,16,00,22.60
2006,07,19,16,01,22.70
2006,07,19,16,02,22.70
2006,07,19,16,03,22.70
2006,07,19,16,04,22.60
2006,07,19,16,05,22.60
2006,07,19,16,06,22.50
2006,07,19,16,07,22.40
2006,07,19,16,08,22.30
2006,07,19,16,09,22.20
2006,07,19,16,10,22.20
2006,07,19,16,11,22.20
2006,07,19,16,12,22.20
2006,07,19,16,13,22.20
2006,07,19,16,14,22.30
2006,07,19,16,15,22.30
2006,07,19,16,16,22.40
2006,07,19,16,17,22.50
2006,07,19,16,18,22.60
2006,07,19,16,19,22.70
2006,07,19,16,20,22.70
2006,07,19,16,21,22.70
2006,07,19,16,22,22.70
2006,07,19,16,23,22.60
2006,07,19,16,24,22.60
2006,07,19,16,25,22.50
2006,07,19,16,26,22.40
2006,07,19,16,27,22.40
2006,07,19,16,28,22.40
2006,07,19,16,29,22.40
2006,07,19,16,30,22.50
2006,07,19,16,31,22.50
2006,07,19,16,32,22.60
2006,07,19,16,33,22.60
2006,07,19,16,34,22.70
2006,07,19,16,35,22.70
2006,07,19,16,36,22.70
2006,07,19,16,37,22.80
2006,07,19,16,38,22.80
2006,07,19,16,39,22.80
2006,07,19,16,40,22.80
2006,07,19,16,41,22.80
2006,07,19,16,42,22.80
2006,07,19,16,43,22.70
2006,07,19,16,44,22.70
2006,07,19,16,45,22.70
2006,07,19,16,46,22.70
2006,07,19,16,47,22.70
2006,07,19,16,48,22.70
2006,07,19,16,49,22.70
2006,07,19,16,50,22.70
2006,07,19,16,51,22.70
2006,07,19,16,52,22.70
2006,07,19,16,53,22.60
2006,07,19,16,54,22.60
2006,07,19,16,55,22.50
2006,07,19,16,56,22.50
2006,07,19,16,57,22.60
2006,07,19,16,58,22.70
2006,07,19,16,59,22.70
2006,07,19,17,00,22.80
2006,07,19,17,01,22.80
2006,07,19,17,02,22.80
2006,07,19,17,03,22.80
2006,07,19,17,04,22.80
2006,07,19,17,05,22.70
2006,07,19,17,06,22.70
2006,07,19,17,07,22.80
2006,07,19,17,08,22.80
2006,07,19,17,09,22.80
2006,07,19,17,10,22.90
2006,07,19,17,11,22.90
2006,07,19,17,12,22.90
2006,07,19,17,13,22.90
2006,07,19,17,14,22.90
2006,07,19,17,15,22.90
2006,07,19,17,16,22.90
2006,07,19,17,17,22.90
2006,07,19,17,18,22.90
2006,07,19,17,19,22.90
2006,07,19,17,20,22.90
2006,07,19,17,21,22.90
2006,07,19,17,22,22.90
2006,07,19,17,23,22.90
2006,07,19,17,24,22.90